TIME,DELAY(SENSOR),PRES,OXYGEN,RAWTEMP,T(OPTODE),TCPHASE,FLUOR,BETA(BETA700),BETA(BETA412),BETA(BETA440),CDOM,C(CSC),ED(ED412.40),ED(ED444.00),ED(ED489.70),ED(ED554.30),LU(LU411.80),LU(LU443.40),LU(LU489.60),LU(LU554.10),COMP,TILTX,TILTY,CHECK
1342064302,5809,886.9600219726562000,43.9375114440918000,661.6674194335938000,4.5730628967285160,54.4282798767089840,52,99,91,78,82,15395,2147761024,2147422208,2148001801,2147876480,2147642907,2147061138,2148256073,2147202596,81,5,13,18281
1342067898,5810,966.9000244140625000,45.8349494934082000,668.0460205078125000,4.3627238273620605,54.2365188598632800,53,100,85,79,81,15395,2147761645,2147422582,2148007826,2147875437,2147642678,2147063268,2148253056,2147201837,848,5,13,41708
1342071498,5802,984.3099975585938000,46.3054695129394500,669.7299194335938000,4.3071208000183105,54.1859703063964840,53,99,89,80,81,15391,2147761709,2147419565,2148008292,2147877385,2147641609,2147055314,2148258578,2147199606,3597,5,13,9822
1342075098,5808,985.7299804687500000,46.8129501342773440,670.7098999023438000,4.2747440338134770,54.1268997192382800,54,162,86,78,82,15392,2147757906,2147420489,2148009636,2147875154,2147643501,2147059593,2148264009,2147197357,3435,5,13,42863
1342078698,5807,989.7399902343750000,46.8535385131835940,670.7224731445312000,4.2743282318115230,54.1213607788085940,52,98,88,79,82,15392,2147760832,2147419648,2148006518,2147875529,2147640228,2147064256,2148259364,2147199369,170,5,13,14821
1342082298,5811,989.0000000000000000,47.2618598937988300,672.8024291992188000,4.2055778503417970,54.0883483886718750,52,99,88,78,82,15390,2147761892,2147419565,2148010084,2147874358,2147642596,2147062052,2148266816,2147198326,74,5,13,26220
1342085898,5810,984.7100219726562000,47.3688201904296900,673.4110107421875000,4.1854529380798340,54.0764083862304700,53,99,86,79,82,15388,2147757842,2147420617,2148006025,2147875456,2147643337,2147055643,2148260406,2147198957,196,5,13,48914
1342089498,5809,982.9500122070312000,47.6332092285156250,673.9218750000000000,4.1685538291931150,54.0515098571777340,53,100,87,80,82,15389,2147762413,2147421741,2148007021,2147871945,2147647149,2147054500,2148261732,2147199725,473,4,13,38618
1342093098,5810,990.5800170898438000,47.9112510681152340,674.1655883789062000,4.1604919433593750,54.0105018615722660,52,97,91,80,83,15389,2147763209,2147419812,2148009216,2147875611,2147643483,2147060470,2148261138,2147200777,174,5,13,16409
1342096698,5810,984.1099853515625000,47.9249610900878900,674.4075927734375000,4.1524868011474610,54.0168495178222660,53,100,90,79,82,15388,2147761014,2147420379,2148007670,2147872960,2147645302,2147060425,2148260370,2147203977,144,5,13,27133
1342100298,5809,1001.8400268554688000,47.3847885131835940,673.2395019531250000,4.1911258697509770,54.0722694396972660,52,99,90,79,82,15385,2147759213,2147421174,2148009444,2147875666,2147641993,2147059254,2148262610,2147197878,76,5,13,14897
1342103898,5810,1003.0200195312500000,46.5544204711914060,671.5673217773438000,4.2464079856872560,54.1761093139648440,53,102,90,78,81,15388,2147760283,2147420242,2148008832,2147872603,2147641014,2147059968,2148261019,2147198061,360,4,13,9859
1342107498,5810,1005.7299804687500000,46.0083084106445300,671.5150146484375000,4.2481398582458500,54.2475013732910160,53,103,90,79,81,15383,2147758902,2147422948,2148008941,2147877284,2147643693,2147059867,2148256795,2147199826,3245,5,13,21440
1342111098,5811,1002.4299926757812000,46.4717292785644500,671.6192016601562000,4.2446942329406740,54.1814918518066400,52,99,90,80,83,15382,2147763849,2147415963,2148003730,2147874605,2147642843,2147054299,2148254299,2147202816,3105,5,13,25707
1342114698,5807,994.5999755859375000,46.4311904907226560,672.4481811523438000,4.2172908782958980,54.2010383605957000,52,101,88,80,83,15383,2147762779,2147420205,2148006509,2147875657,2147643136,2147058560,2148258002,2147200484,3130,5,13,20263
1342118298,5809,996.2399902343750000,46.7541389465332000,673.4730834960938000,4.1834011077880860,54.1704788208007800,53,98,88,80,82,15381,2147761590,2147419355,2148008612,2147876973,2147641581,2147059053,2148267492,2147202934,3465,5,13,38546
1342121898,5810,997.0000000000000000,47.1424598693847660,673.6627197265625000,4.1771278381347660,54.1121215820312500,52,99,89,77,83,15380,2147762331,2147421970,2148010852,2147874505,2147639168,2147056109,2148262061,2147200813,98,5,13,38160
1342125498,5807,996.7500000000000000,47.2904014587402340,674.5300292968750000,4.1484379768371580,54.1011695861816400,53,100,90,81,82,15384,2147761124,2147422573,2148008374,2147876050,2147642989,2147054948,2148260708,2147198153,100,4,13,15661
1342129098,5808,998.4000244140625000,46.6238288879394500,673.8673706054688000,4.1703572273254395,54.1905899047851560,52,99,88,80,81,15371,2147761389,2147418139,2148008585,2147876763,2147643794,2147055350,2148261741,2147201334,794,5,13,55547
1342132698,5808,991.0800170898438000,46.5473709106445300,674.2603759765625000,4.1573581695556640,54.2084693908691400,53,104,86,79,83,15379,2147760740,2147419620,2148008438,2147873133,2147644900,2147060352,2148262326,2147203291,658,5,13,21203
1342136298,5809,993.9400024414062000,48.1799697875976560,675.2285766601562000,4.1253218650817870,53.9902496337890600,52,97,88,80,82,15380,2147757860,2147418505,2148006500,2147872731,2147645339,2147055085,2148258358,2147198281,13,4,13,3187
1342139898,5808,994.3400268554688000,47.6925811767578100,674.5794067382812000,4.1468029022216800,54.0466804504394500,52,99,87,80,83,15375,2147758281,2147421211,2148007369,2147874989,2147642276,2147058441,2148259840,2147201371,2726,5,13,56233
1342143498,5809,1000.2600097656250000,47.8532485961914060,674.4091796875000000,4.1524329185485840,54.0210800170898440,53,99,86,79,82,15378,2147761929,2147421147,2148007981,2147872585,2147646308,2147059611,2148257700,2147201618,3106,4,13,56860
1342147098,5808,998.7500000000000000,47.8173789978027340,674.4022216796875000,4.1526679992675780,54.0296516418457000,52,101,88,78,82,15380,2147762907,2147420196,2148007872,2147876644,2147643858,2147061266,2148263405,2147200448,3143,5,13,20197
1342150698,5810,1001.2100219726562000,48.4380302429199200,674.8557739257812000,4.1376571655273440,53.9485893249511700,52,99,89,79,83,15378,2147763693,2147419328,2148006692,2147877412,2147642075,2147052909,2148263689,2147200969,3184,5,13,22831
1342154298,5809,999.6599731445312000,47.5557708740234400,674.3822021484375000,4.1533279418945310,54.0637702941894500,52,98,88,78,81,15379,2147762578,2147421787,2148006134,2147875748,2147643629,2147056384,2148261796,2147197970,55,5,13,33674
1342157898,5808,1011.6699829101562000,46.8359489440918000,672.3989868164062000,4.2189159393310550,54.1445999145507800,52,98,87,80,82,15377,2147760438,2147423369,2148006957,2147878720,2147643456,2147058880,2148259136,2147200000,3518,4,13,7747
1342161498,5811,1006.4099731445312000,46.0662384033203100,672.6870727539062000,4.2093930244445800,54.2594108581543000,52,99,84,79,82,15372,2147761344,2147420964,2148008621,2147877366,2147644955,2147056155,2148259154,2147200283,3561,5,13,24520
1342165098,5810,1005.9000244140625000,46.4529495239257800,672.4769897460938000,4.2163372039794920,54.2018394470214840,52,99,87,79,82,15376,2147760036,2147417188,2148007186,2147874633,2147642038,2147061577,2148262427,2147198299,108,4,13,22334
1342168698,5809,1004.4299926757812000,46.3833999633789060,672.8668212890625000,4.2034511566162110,54.2134590148925800,53,98,86,79,81,15374,2147760457,2147421046,2148007570,2147873435,2147641837,2147061531,2148256795,2147202011,93,5,13,30768
1342172298,5807,1007.5499877929688000,46.3555412292480500,672.8718872070312000,4.2032809257507320,54.2203102111816400,52,98,85,79,81,15371,2147761005,2147421714,2148009481,2147874925,2147643785,2147058889,2148255378,2147199323,3568,4,13,39009
1342175898,5811,1001.2100219726562000,46.2166099548339840,673.4970703125000000,4.1826081275939940,54.2450485229492200,53,99,89,79,82,15373,2147755776,2147419172,2148007149,2147875355,2147645897,2147063680,2148264402,2147200182,380,5,13,16487
1342179498,5809,1004.9799804687500000,47.5973815917968750,674.1588745117188000,4.1607131958007810,54.0538902282714840,53,98,87,79,83,15376,2147759798,2147420132,2148008128,2147877659,2147644589,2147057197,2148261330,2147201234,100,4,13,13960
1342183098,5810,1002.9000244140625000,47.1659812927246100,673.9729003906250000,4.1668682098388670,54.1154899597168000,54,98,89,79,82,15374,2147760722,2147419593,2148005412,2147873782,2147645293,2147058779,2148263716,2147196461,215,5,13,34651
1342186698,5808,1001.9099731445312000,47.9490394592285160,674.6063232421875000,4.1459121704101560,54.0151786804199200,53,99,88,78,82,15371,2147759954,2147419611,2148006336,2147875474,2147645906,2147062262,2148264658,2147198089,282,5,13,11
1342190298,5809,1016.1099853515625000,47.0017700195312500,673.4995117187500000,4.1825280189514160,54.1332893371582000,52,99,90,80,83,15372,2147761545,2147418441,2148006601,2147874642,2147643556,2147061440,2148265773,2147199168,318,4,13,15721
1342193898,5810,1005.5399780273438000,46.2050399780273440,672.5446777343750000,4.2140998840332030,54.2306709289550800,53,100,89,78,82,15375,2147760841,2147420187,2148006226,2147879424,2147643840,2147061092,2148266733,2147196370,25,5,13,49675
1342197498,5807,1006.4000244140625000,46.3244018554687500,673.6190185546875000,4.1785740852355960,54.2317581176757800,52,98,89,79,82,15372,2147762587,2147421266,2148007963,2147875200,2147640996,2147057024,2148263552,2147196690,3098,5,13,40121
1342201098,5807,1005.5700073242188000,47.2999496459960940,674.4534912109375000,4.1509699821472170,54.1020698547363300,52,108,87,80,82,15373,2147761664,2147421851,2148007844,2147872978,2147644443,2147062070,2148264804,2147200155,554,4,13,63122
1342204698,5809,995.2199707031250000,46.9029197692871100,674.6262207031250000,4.1452541351318360,54.1608695983886700,53,102,89,79,81,15369,2147761124,2147419748,2148008128,2147873673,2147643145,2147063387,2148260297,2147202221,3368,5,13,56094
1342208298,5811,1000.8099975585938000,47.9631690979003900,674.9451293945312000,4.1347031593322750,54.0117797851562500,53,98,91,80,82,15360,2147762496,2147421376,2148005760,2147874386,2147644388,2147062409,2148259117,2147199012,58,5,13,41210
1342209055,5805,1003.4600219726562000,47.9347686767578100,674.9490966796875000,4.1345710754394530,54.0205497741699200,52,98,85,78,80,15384,2147760576,2147421147,2148010157,2147875584,2147643977,2147067072,2148259382,2147200877,3506,5,13,61273
